Year,Month,Day,Hour,Minute,Value (Times are PST for windspeed in km/hr)
2014,04,19,00,00,14.80
2014,04,19,00,01,9.60
2014,04,19,00,02,9.60
2014,04,19,00,03,9.60
2014,04,19,00,04,13.40
2014,04,19,00,05,14.60
2014,04,19,00,06,19.30
2014,04,19,00,07,17.60
2014,04,19,00,08,17.00
2014,04,19,00,09,17.70
2014,04,19,00,10,13.50
2014,04,19,00,11,14.10
2014,04,19,00,12,15.10
2014,04,19,00,13,13.50
2014,04,19,00,14,15.50
2014,04,19,00,15,14.30
2014,04,19,00,16,12.90
2014,04,19,00,17,15.20
2014,04,19,00,18,11.80
2014,04,19,00,19,14.30
2014,04,19,00,20,15.50
2014,04,19,00,21,13.40
2014,04,19,00,22,11.30
2014,04,19,00,23,17.80
2014,04,19,00,24,16.20
2014,04,19,00,25,16.80
2014,04,19,00,26,15.00
2014,04,19,00,27,17.30
2014,04,19,00,28,15.20
2014,04,19,00,29,18.50
2014,04,19,00,30,15.50
2014,04,19,00,31,12.80
2014,04,19,00,32,15.10
2014,04,19,00,33,14.70
2014,04,19,00,34,14.40
2014,04,19,00,35,16.90
2014,04,19,00,36,13.70
2014,04,19,00,37,13.10
2014,04,19,00,38,17.30
2014,04,19,00,39,13.80
2014,04,19,00,40,12.60
2014,04,19,00,41,12.30
2014,04,19,00,42,10.90
2014,04,19,00,43,14.60
2014,04,19,00,44,15.50
2014,04,19,00,45,8.00
2014,04,19,00,46,8.00
2014,04,19,00,47,13.20
2014,04,19,00,48,11.90
2014,04,19,00,49,13.80
2014,04,19,00,50,12.20
2014,04,19,00,51,14.00
2014,04,19,00,52,10.10
2014,04,19,00,53,11.20
2014,04,19,00,54,13.80
2014,04,19,00,55,11.70
2014,04,19,00,56,17.30
2014,04,19,00,57,16.50
2014,04,19,00,58,10.80
2014,04,19,00,59,11.30
2014,04,19,01,00,15.10
2014,04,19,01,01,10.50
2014,04,19,01,02,15.80
2014,04,19,01,03,13.90
2014,04,19,01,04,13.30
2014,04,19,01,05,14.30
2014,04,19,01,06,18.30
2014,04,19,01,07,13.20
2014,04,19,01,08,14.50
2014,04,19,01,09,12.40
2014,04,19,01,10,13.90
2014,04,19,01,11,15.50
2014,04,19,01,12,10.00
2014,04,19,01,13,16.20
2014,04,19,01,14,14.50
2014,04,19,01,15,15.70
2014,04,19,01,16,16.40
2014,04,19,01,17,16.70
2014,04,19,01,18,13.60
2014,04,19,01,19,10.00
2014,04,19,01,20,10.30
2014,04,19,01,21,17.20
2014,04,19,01,22,15.20
2014,04,19,01,23,18.10
2014,04,19,01,24,15.70
2014,04,19,01,25,16.50
2014,04,19,01,26,14.70
2014,04,19,01,27,16.50
2014,04,19,01,28,14.40
2014,04,19,01,29,14.00
2014,04,19,01,30,13.70
2014,04,19,01,31,14.60
2014,04,19,01,32,16.90
2014,04,19,01,33,15.00
2014,04,19,01,34,15.10
2014,04,19,01,35,14.80
2014,04,19,01,36,17.50
2014,04,19,01,37,13.60
2014,04,19,01,38,18.90
2014,04,19,01,39,13.10
2014,04,19,01,40,12.40
2014,04,19,01,41,13.40
2014,04,19,01,42,15.80
2014,04,19,01,43,12.50
2014,04,19,01,44,14.20
2014,04,19,01,45,11.70
2014,04,19,01,46,13.20
2014,04,19,01,47,11.60
2014,04,19,01,48,12.30
2014,04,19,01,49,11.90
2014,04,19,01,50,13.10
2014,04,19,01,51,8.00
2014,04,19,01,52,10.00
2014,04,19,01,53,13.90
2014,04,19,01,54,6.30
2014,04,19,01,55,6.60
2014,04,19,01,56,10.20
2014,04,19,01,57,9.90
2014,04,19,01,58,12.00
2014,04,19,01,59,9.40
2014,04,19,02,00,9.70
2014,04,19,02,01,11.00
2014,04,19,02,02,11.30
2014,04,19,02,03,10.30
2014,04,19,02,04,11.70
2014,04,19,02,05,13.70
2014,04,19,02,06,11.80
2014,04,19,02,07,11.40
2014,04,19,02,08,16.70
2014,04,19,02,09,14.20
2014,04,19,02,10,9.10
2014,04,19,02,11,11.70
2014,04,19,02,12,14.20
2014,04,19,02,13,14.10
2014,04,19,02,14,13.90
2014,04,19,02,15,12.20
2014,04,19,02,16,13.00
2014,04,19,02,17,14.20
2014,04,19,02,18,16.80
2014,04,19,02,19,14.20
2014,04,19,02,20,15.80
2014,04,19,02,21,14.20
2014,04,19,02,22,14.30
2014,04,19,02,23,13.70
2014,04,19,02,24,13.60
2014,04,19,02,25,13.90
2014,04,19,02,26,14.80
2014,04,19,02,27,13.10
2014,04,19,02,28,11.20
2014,04,19,02,29,11.60
2014,04,19,02,30,12.70
2014,04,19,02,31,11.20
2014,04,19,02,32,11.60
2014,04,19,02,33,11.90
2014,04,19,02,34,15.10
2014,04,19,02,35,12.10
2014,04,19,02,36,14.00
2014,04,19,02,37,13.60
2014,04,19,02,38,11.10
2014,04,19,02,39,12.60
2014,04,19,02,40,12.10
2014,04,19,02,41,12.10
2014,04,19,02,42,12.10
2014,04,19,02,43,13.20
2014,04,19,02,44,10.80
2014,04,19,02,45,14.20
2014,04,19,02,46,10.00
2014,04,19,02,47,11.00
2014,04,19,02,48,11.60
2014,04,19,02,49,14.20
2014,04,19,02,50,10.10
2014,04,19,02,51,8.60
2014,04,19,02,52,13.90
2014,04,19,02,53,13.50
2014,04,19,02,54,12.70
2014,04,19,02,55,18.20
2014,04,19,02,56,15.70
2014,04,19,02,57,14.20
2014,04,19,02,58,13.50
2014,04,19,02,59,18.70
2014,04,19,03,00,17.90
2014,04,19,03,01,19.10
2014,04,19,03,02,17.60
2014,04,19,03,03,15.60
2014,04,19,03,04,18.30
2014,04,19,03,05,20.30
2014,04,19,03,06,15.30
2014,04,19,03,07,13.80
2014,04,19,03,08,15.40
2014,04,19,03,09,12.50
2014,04,19,03,10,13.50
2014,04,19,03,11,17.10
2014,04,19,03,12,8.80
2014,04,19,03,13,15.50
2014,04,19,03,14,19.10
2014,04,19,03,15,17.00
2014,04,19,03,16,15.60
2014,04,19,03,17,17.70
2014,04,19,03,18,19.10
2014,04,19,03,19,18.30
2014,04,19,03,20,15.00
2014,04,19,03,21,10.00
2014,04,19,03,22,7.50
2014,04,19,03,23,6.30
2014,04,19,03,24,5.80
2014,04,19,03,25,11.40
2014,04,19,03,26,6.40
2014,04,19,03,27,6.60
2014,04,19,03,28,9.50
2014,04,19,03,29,6.70
2014,04,19,03,30,11.10
2014,04,19,03,31,13.50
2014,04,19,03,32,10.70
2014,04,19,03,33,14.70
2014,04,19,03,34,14.60
2014,04,19,03,35,16.10
2014,04,19,03,36,14.90
2014,04,19,03,37,15.90
2014,04,19,03,38,14.90
2014,04,19,03,39,13.00
2014,04,19,03,40,11.30
2014,04,19,03,41,9.20
2014,04,19,03,42,14.20
2014,04,19,03,43,10.10
2014,04,19,03,44,11.00
2014,04,19,03,45,9.70
2014,04,19,03,46,10.30
2014,04,19,03,47,8.40
2014,04,19,03,48,10.80
2014,04,19,03,49,11.60
2014,04,19,03,50,5.60
2014,04,19,03,51,5.80
2014,04,19,03,52,8.30
2014,04,19,03,53,3.70
2014,04,19,03,54,7.80
2014,04,19,03,55,7.00
2014,04,19,03,56,10.80
2014,04,19,03,57,9.20
2014,04,19,03,58,14.00
2014,04,19,03,59,12.50
2014,04,19,04,00,11.00
2014,04,19,04,01,6.40
2014,04,19,04,02,9.30
2014,04,19,04,03,5.90
2014,04,19,04,04,8.00
2014,04,19,04,05,8.90
2014,04,19,04,06,10.40
2014,04,19,04,07,11.00
2014,04,19,04,08,9.60
2014,04,19,04,09,12.60
2014,04,19,04,10,11.30
2014,04,19,04,11,6.20
2014,04,19,04,12,13.10
2014,04,19,04,13,13.50
2014,04,19,04,14,9.40
2014,04,19,04,15,10.00
2014,04,19,04,16,5.60
2014,04,19,04,17,11.80
2014,04,19,04,18,11.00
2014,04,19,04,19,12.60
2014,04,19,04,20,10.10
2014,04,19,04,21,14.80
2014,04,19,04,22,10.00
2014,04,19,04,23,11.10
2014,04,19,04,24,10.00
2014,04,19,04,25,8.20
2014,04,19,04,26,11.80
2014,04,19,04,27,8.60
2014,04,19,04,28,16.10
2014,04,19,04,29,8.30
2014,04,19,04,30,17.50
2014,04,19,04,31,11.70
2014,04,19,04,32,6.90
2014,04,19,04,33,8.10
2014,04,19,04,34,6.10
2014,04,19,04,35,6.00
2014,04,19,04,36,10.70
2014,04,19,04,37,9.00
2014,04,19,04,38,8.10
2014,04,19,04,39,11.90
2014,04,19,04,40,8.60
2014,04,19,04,41,8.80
2014,04,19,04,42,10.30
2014,04,19,04,43,10.90
2014,04,19,04,44,10.90
2014,04,19,04,45,12.60
2014,04,19,04,46,12.60
2014,04,19,04,47,8.10
2014,04,19,04,48,6.00
2014,04,19,04,49,10.70
2014,04,19,04,50,11.70
2014,04,19,04,51,10.50
2014,04,19,04,52,3.90
2014,04,19,04,53,7.30
2014,04,19,04,54,4.80
2014,04,19,04,55,7.20
2014,04,19,04,56,6.50
2014,04,19,04,57,8.90
2014,04,19,04,58,7.40
2014,04,19,04,59,10.00
2014,04,19,05,00,9.10
2014,04,19,05,01,13.70
2014,04,19,05,02,18.70
2014,04,19,05,03,11.10
2014,04,19,05,04,9.40
2014,04,19,05,05,7.70
2014,04,19,05,06,11.50
2014,04,19,05,07,15.80
2014,04,19,05,08,14.90
2014,04,19,05,09,14.10
2014,04,19,05,10,14.90
2014,04,19,05,11,9.20
2014,04,19,05,12,13.20
2014,04,19,05,13,13.20
2014,04,19,05,14,8.80
2014,04,19,05,15,13.40
2014,04,19,05,16,13.20
2014,04,19,05,17,13.80
2014,04,19,05,18,6.90
2014,04,19,05,19,6.60
2014,04,19,05,20,13.10
2014,04,19,05,21,10.50
2014,04,19,05,22,11.90
2014,04,19,05,23,10.60
2014,04,19,05,24,4.80
2014,04,19,05,25,5.20
2014,04,19,05,26,9.30
2014,04,19,05,27,7.30
2014,04,19,05,28,6.90
2014,04,19,05,29,17.30
2014,04,19,05,30,8.70
2014,04,19,05,31,7.10
2014,04,19,05,32,6.70
2014,04,19,05,33,13.90
2014,04,19,05,34,15.00
2014,04,19,05,35,16.50
2014,04,19,05,36,15.50
2014,04,19,05,37,12.50
2014,04,19,05,38,9.90
2014,04,19,05,39,7.10
2014,04,19,05,40,8.90
2014,04,19,05,41,10.60
2014,04,19,05,42,16.40
2014,04,19,05,43,10.40
2014,04,19,05,44,11.30
2014,04,19,05,45,9.40
2014,04,19,05,46,9.10
2014,04,19,05,47,13.50
2014,04,19,05,48,11.30
2014,04,19,05,49,12.20
2014,04,19,05,50,12.70
2014,04,19,05,51,12.70
2014,04,19,05,52,10.00
2014,04,19,05,53,6.60
2014,04,19,05,54,11.70
2014,04,19,05,55,6.60
2014,04,19,05,56,9.90
2014,04,19,05,57,9.30
2014,04,19,05,58,5.60
2014,04,19,05,59,9.70
2014,04,19,06,00,11.30
2014,04,19,06,01,8.20
2014,04,19,06,02,8.60
2014,04,19,06,03,15.20
2014,04,19,06,04,17.20
2014,04,19,06,05,13.80
2014,04,19,06,06,12.60
2014,04,19,06,07,10.20
2014,04,19,06,08,8.20
2014,04,19,06,09,10.80
2014,04,19,06,10,7.80
2014,04,19,06,11,9.20
2014,04,19,06,12,17.20
2014,04,19,06,13,19.00
2014,04,19,06,14,14.80
2014,04,19,06,15,19.80
2014,04,19,06,16,16.40
2014,04,19,06,17,13.00
2014,04,19,06,18,12.40
2014,04,19,06,19,12.90
2014,04,19,06,20,9.00
2014,04,19,06,21,15.60
2014,04,19,06,22,14.80
2014,04,19,06,23,15.10
2014,04,19,06,24,13.80
2014,04,19,06,25,9.80
2014,04,19,06,26,18.20
2014,04,19,06,27,20.50
2014,04,19,06,28,19.20
2014,04,19,06,29,17.90
2014,04,19,06,30,13.70
2014,04,19,06,31,15.50
2014,04,19,06,32,19.10
2014,04,19,06,33,19.20
2014,04,19,06,34,22.80
2014,04,19,06,35,19.50
2014,04,19,06,36,13.60
2014,04,19,06,37,11.80
2014,04,19,06,38,9.70
2014,04,19,06,39,14.20
2014,04,19,06,40,21.50
2014,04,19,06,41,18.60
2014,04,19,06,42,18.70
2014,04,19,06,43,10.60
2014,04,19,06,44,10.40
2014,04,19,06,45,10.20
2014,04,19,06,46,14.00
2014,04,19,06,47,17.00
2014,04,19,06,48,20.20
2014,04,19,06,49,15.80
2014,04,19,06,50,11.00
2014,04,19,06,51,19.80
2014,04,19,06,52,18.10
2014,04,19,06,53,10.70
2014,04,19,06,54,11.60
2014,04,19,06,55,10.40
2014,04,19,06,56,8.80
2014,04,19,06,57,12.50
2014,04,19,06,58,14.30
2014,04,19,06,59,12.30
2014,04,19,07,00,9.00
2014,04,19,07,01,8.90
2014,04,19,07,02,14.10
2014,04,19,07,03,6.10
2014,04,19,07,04,9.40
2014,04,19,07,05,10.70
2014,04,19,07,06,14.20
2014,04,19,07,07,7.60
2014,04,19,07,08,5.70
2014,04,19,07,09,13.10
2014,04,19,07,10,9.20
2014,04,19,07,11,8.40
2014,04,19,07,12,16.00
2014,04,19,07,13,14.50
2014,04,19,07,14,17.50
2014,04,19,07,15,15.70
2014,04,19,07,16,12.70
2014,04,19,07,17,11.50
2014,04,19,07,18,11.80
2014,04,19,07,19,8.40
2014,04,19,07,20,12.80
2014,04,19,07,21,13.50
2014,04,19,07,22,12.80
2014,04,19,07,23,10.80
2014,04,19,07,24,9.60
2014,04,19,07,25,14.70
2014,04,19,07,26,13.00
2014,04,19,07,27,18.30
2014,04,19,07,28,15.00
2014,04,19,07,29,12.90
2014,04,19,07,30,15.40
2014,04,19,07,31,17.20
2014,04,19,07,32,11.20
2014,04,19,07,33,16.20
2014,04,19,07,34,14.60
2014,04,19,07,35,20.00
2014,04,19,07,36,14.60
2014,04,19,07,37,17.30
2014,04,19,07,38,14.60
2014,04,19,07,39,11.10
2014,04,19,07,40,10.80
2014,04,19,07,41,12.10
2014,04,19,07,42,14.90
2014,04,19,07,43,17.80
2014,04,19,07,44,13.50
2014,04,19,07,45,14.30
2014,04,19,07,46,17.40
2014,04,19,07,47,15.90
2014,04,19,07,48,8.10
2014,04,19,07,49,7.50
2014,04,19,07,50,13.40
2014,04,19,07,51,16.80
2014,04,19,07,52,18.60
2014,04,19,07,53,10.10
2014,04,19,07,54,20.10
2014,04,19,07,55,18.60
2014,04,19,07,56,13.20
2014,04,19,07,57,10.40
2014,04,19,07,58,6.70
2014,04,19,07,59,11.70
2014,04,19,08,00,7.80
2014,04,19,08,01,3.10
2014,04,19,08,02,6.10
2014,04,19,08,03,12.40
2014,04,19,08,04,5.10
2014,04,19,08,05,7.90
2014,04,19,08,06,6.40
2014,04,19,08,07,7.60
2014,04,19,08,08,10.10
2014,04,19,08,09,9.70
2014,04,19,08,10,5.50
2014,04,19,08,11,11.20
2014,04,19,08,12,15.60
2014,04,19,08,13,10.70
2014,04,19,08,14,7.50
2014,04,19,08,15,6.80
2014,04,19,08,16,13.60
2014,04,19,08,17,10.20
2014,04,19,08,18,7.60
2014,04,19,08,19,2.60
2014,04,19,08,20,4.00
2014,04,19,08,21,3.60
2014,04,19,08,22,5.50
2014,04,19,08,23,8.00
2014,04,19,08,24,6.80
2014,04,19,08,25,12.30
2014,04,19,08,26,8.60
2014,04,19,08,27,15.50
2014,04,19,08,28,15.50
2014,04,19,08,29,12.00
2014,04,19,08,30,9.50
2014,04,19,08,31,4.50
2014,04,19,08,32,4.30
2014,04,19,08,33,6.70
2014,04,19,08,34,7.90
2014,04,19,08,35,6.80
2014,04,19,08,36,5.80
2014,04,19,08,37,7.90
2014,04,19,08,38,15.90
2014,04,19,08,39,10.60
2014,04,19,08,40,9.60
2014,04,19,08,41,12.10
2014,04,19,08,42,10.50
2014,04,19,08,43,2.80
2014,04,19,08,44,5.50
2014,04,19,08,45,5.10
2014,04,19,08,46,7.80
2014,04,19,08,47,6.00
2014,04,19,08,48,5.10
2014,04,19,08,49,3.80
2014,04,19,08,50,3.50
2014,04,19,08,51,0.80
2014,04,19,08,52,0.10
2014,04,19,08,53,2.10
2014,04,19,08,54,0.10
2014,04,19,08,55,1.80
2014,04,19,08,56,4.20
2014,04,19,08,57,1.90
2014,04,19,08,58,9.70
2014,04,19,08,59,11.70
2014,04,19,09,00,6.10
2014,04,19,09,01,2.80
2014,04,19,09,02,3.50
2014,04,19,09,03,1.80
2014,04,19,09,04,5.80
2014,04,19,09,05,9.70
2014,04,19,09,06,9.00
2014,04,19,09,07,9.20
2014,04,19,09,08,4.20
2014,04,19,09,09,4.80
2014,04,19,09,10,9.10
2014,04,19,09,11,7.00
2014,04,19,09,12,7.40
2014,04,19,09,13,8.80
2014,04,19,09,14,6.50
2014,04,19,09,15,6.10
2014,04,19,09,16,9.20
2014,04,19,09,17,8.10
2014,04,19,09,18,15.20
2014,04,19,09,19,15.00
2014,04,19,09,20,10.10
2014,04,19,09,21,10.00
2014,04,19,09,22,10.00
2014,04,19,09,23,8.00
2014,04,19,09,24,4.00
2014,04,19,09,25,1.20
2014,04,19,09,26,1.70
2014,04,19,09,27,2.80
2014,04,19,09,28,2.10
2014,04,19,09,29,0.90
2014,04,19,09,30,0.40
2014,04,19,09,31,4.40
2014,04,19,09,32,6.10
2014,04,19,09,33,7.00
2014,04,19,09,34,6.40
2014,04,19,09,35,7.00
2014,04,19,09,36,4.70
2014,04,19,09,37,3.40
2014,04,19,09,38,5.10
2014,04,19,09,39,7.80
2014,04,19,09,40,9.90
2014,04,19,09,41,4.70
2014,04,19,09,42,3.10
2014,04,19,09,43,3.70
2014,04,19,09,44,6.40
2014,04,19,09,45,5.10
2014,04,19,09,46,6.80
2014,04,19,09,47,4.70
2014,04,19,09,48,6.40
2014,04,19,09,49,7.30
2014,04,19,09,50,6.70
2014,04,19,09,51,3.50
2014,04,19,09,52,3.60
2014,04,19,09,53,5.80
2014,04,19,09,54,4.80
2014,04,19,09,55,3.60
2014,04,19,09,56,3.60
2014,04,19,09,57,4.70
2014,04,19,09,58,2.50
2014,04,19,09,59,0.20
2014,04,19,10,00,2.20
2014,04,19,10,01,5.90
2014,04,19,10,02,7.20
2014,04,19,10,03,5.20
2014,04,19,10,04,1.50
2014,04,19,10,05,4.00
2014,04,19,10,06,5.40
2014,04,19,10,07,4.10
2014,04,19,10,08,4.20
2014,04,19,10,09,4.40
2014,04,19,10,10,3.40
2014,04,19,10,11,6.50
2014,04,19,10,12,1.40
2014,04,19,10,13,0.10
2014,04,19,10,14,0.10
2014,04,19,10,15,0.10
2014,04,19,10,16,4.40
2014,04,19,10,17,2.40
2014,04,19,10,18,2.10
2014,04,19,10,19,0.30
2014,04,19,10,20,2.50
2014,04,19,10,21,2.20
2014,04,19,10,22,6.40
2014,04,19,10,23,6.30
2014,04,19,10,24,7.70
2014,04,19,10,25,8.00
2014,04,19,10,26,2.90
2014,04,19,10,27,4.30
2014,04,19,10,28,3.70
2014,04,19,10,29,0.10
2014,04,19,10,30,2.10
2014,04,19,10,31,3.20
2014,04,19,10,32,2.40
2014,04,19,10,33,1.50
2014,04,19,10,34,0.20
2014,04,19,10,35,2.00
2014,04,19,10,36,1.50
2014,04,19,10,37,0.80
2014,04,19,10,38,5.00
2014,04,19,10,39,2.30
2014,04,19,10,40,3.10
2014,04,19,10,41,7.70
2014,04,19,10,42,3.70
2014,04,19,10,43,3.80
2014,04,19,10,44,0.50
2014,04,19,10,45,4.30
2014,04,19,10,46,4.90
2014,04,19,10,47,3.60
2014,04,19,10,48,3.70
2014,04,19,10,49,3.90
2014,04,19,10,50,3.90
2014,04,19,10,51,1.30
2014,04,19,10,52,1.40
2014,04,19,10,53,3.40
2014,04,19,10,54,2.60
2014,04,19,10,55,0.40
2014,04,19,10,56,1.50
2014,04,19,10,57,1.10
2014,04,19,10,58,6.80
2014,04,19,10,59,12.00
2014,04,19,11,00,9.40
2014,04,19,11,01,12.30
2014,04,19,11,02,8.10
2014,04,19,11,03,8.00
2014,04,19,11,04,8.70
2014,04,19,11,05,8.70
2014,04,19,11,06,10.50
2014,04,19,11,07,8.90
2014,04,19,11,08,9.40
2014,04,19,11,09,7.50
2014,04,19,11,10,5.70
2014,04,19,11,11,7.60
2014,04,19,11,12,6.20
2014,04,19,11,13,3.10
2014,04,19,11,14,1.70
2014,04,19,11,15,7.40
2014,04,19,11,16,9.70
2014,04,19,11,17,11.20
2014,04,19,11,18,8.30
2014,04,19,11,19,5.40
2014,04,19,11,20,2.80
2014,04,19,11,21,0.70
2014,04,19,11,22,1.20
2014,04,19,11,23,5.80
2014,04,19,11,24,6.30
2014,04,19,11,25,5.40
2014,04,19,11,26,13.40
2014,04,19,11,27,7.60
2014,04,19,11,28,9.30
2014,04,19,11,29,14.20
2014,04,19,11,30,16.30
2014,04,19,11,31,16.40
2014,04,19,11,32,16.40
2014,04,19,11,33,6.70
2014,04,19,11,34,5.30
2014,04,19,11,35,2.80
2014,04,19,11,36,5.80
2014,04,19,11,37,9.30
2014,04,19,11,38,12.90
2014,04,19,11,39,8.90
2014,04,19,11,40,10.80
2014,04,19,11,41,10.60
2014,04,19,11,42,11.70
2014,04,19,11,43,14.90
2014,04,19,11,44,15.20
2014,04,19,11,45,16.10
2014,04,19,11,46,16.70
2014,04,19,11,47,16.30
2014,04,19,11,48,12.30
2014,04,19,11,49,10.10
2014,04,19,11,50,10.00
2014,04,19,11,51,18.70
2014,04,19,11,52,13.60
2014,04,19,11,53,12.70
2014,04,19,11,54,5.90
2014,04,19,11,55,8.00
2014,04,19,11,56,6.40
2014,04,19,11,57,6.40
2014,04,19,11,58,6.90
2014,04,19,11,59,7.40
2014,04,19,12,00,5.20
2014,04,19,12,01,0.00
2014,04,19,12,02,0.00
2014,04,19,12,03,0.70
2014,04,19,12,04,1.60
2014,04,19,12,05,2.10
2014,04,19,12,06,3.30
2014,04,19,12,07,3.40
2014,04,19,12,08,4.30
2014,04,19,12,09,6.60
2014,04,19,12,10,3.80
2014,04,19,12,11,3.00
2014,04,19,12,12,0.20
2014,04,19,12,13,0.50
2014,04,19,12,14,2.70
2014,04,19,12,15,3.40
2014,04,19,12,16,1.90
2014,04,19,12,17,1.70
2014,04,19,12,18,2.00
2014,04,19,12,19,0.90
2014,04,19,12,20,6.20
2014,04,19,12,21,4.80
2014,04,19,12,22,5.70
2014,04,19,12,23,6.40
2014,04,19,12,24,5.30
2014,04,19,12,25,6.30
2014,04,19,12,26,8.10
2014,04,19,12,27,8.90
2014,04,19,12,28,7.10
2014,04,19,12,29,9.30
2014,04,19,12,30,6.20
2014,04,19,12,31,6.90
2014,04,19,12,32,6.70
2014,04,19,12,33,4.70
2014,04,19,12,34,5.10
2014,04,19,12,35,5.80
2014,04,19,12,36,8.50
2014,04,19,12,37,5.40
2014,04,19,12,38,4.10
2014,04,19,12,39,1.10
2014,04,19,12,40,5.50
2014,04,19,12,41,8.10
2014,04,19,12,42,7.40
2014,04,19,12,43,6.70
2014,04,19,12,44,6.20
2014,04,19,12,45,4.80
2014,04,19,12,46,5.50
2014,04,19,12,47,6.60
2014,04,19,12,48,3.60
2014,04,19,12,49,2.20
2014,04,19,12,50,1.40
2014,04,19,12,51,0.20
2014,04,19,12,52,1.00
2014,04,19,12,53,0.70
2014,04,19,12,54,1.40
2014,04,19,12,55,0.10
2014,04,19,12,56,0.00
2014,04,19,12,57,0.90
2014,04,19,12,58,1.20
2014,04,19,12,59,3.10
2014,04,19,13,00,2.80
2014,04,19,13,01,2.90
2014,04,19,13,02,0.90
2014,04,19,13,03,0.10
2014,04,19,13,04,3.50
2014,04,19,13,05,3.20
2014,04,19,13,06,1.30
2014,04,19,13,07,2.20
2014,04,19,13,08,1.90
2014,04,19,13,09,7.00
2014,04,19,13,10,6.40
2014,04,19,13,11,5.90
2014,04,19,13,12,5.50
2014,04,19,13,13,5.10
2014,04,19,13,14,3.10
2014,04,19,13,15,3.90
2014,04,19,13,16,3.60
2014,04,19,13,17,7.50
2014,04,19,13,18,7.10
2014,04,19,13,19,7.90
2014,04,19,13,20,8.30
2014,04,19,13,21,8.00
2014,04,19,13,22,5.20
2014,04,19,13,23,5.70
2014,04,19,13,24,10.10
2014,04,19,13,25,11.40
2014,04,19,13,26,8.10
2014,04,19,13,27,11.10
2014,04,19,13,28,11.80
2014,04,19,13,29,9.70
2014,04,19,13,30,8.20
2014,04,19,13,31,12.70
2014,04,19,13,32,12.90
2014,04,19,13,33,13.50
2014,04,19,13,34,13.00
2014,04,19,13,35,11.40
2014,04,19,13,36,8.00
2014,04,19,13,37,11.30
2014,04,19,13,38,9.60
2014,04,19,13,39,11.40
2014,04,19,13,40,13.60
2014,04,19,13,41,12.00
2014,04,19,13,42,11.70
2014,04,19,13,43,8.30
2014,04,19,13,44,6.40
2014,04,19,13,45,6.30
2014,04,19,13,46,7.50
2014,04,19,13,47,9.10
2014,04,19,13,48,12.50
2014,04,19,13,49,12.60
2014,04,19,13,50,17.20
2014,04,19,13,51,17.20
2014,04,19,13,52,18.00
2014,04,19,13,53,13.50
2014,04,19,13,54,10.20
2014,04,19,13,55,11.60
2014,04,19,13,56,11.80
2014,04,19,13,57,15.40
2014,04,19,13,58,11.60
2014,04,19,13,59,11.30
2014,04,19,14,00,12.10
2014,04,19,14,01,13.30
2014,04,19,14,02,13.90
2014,04,19,14,03,10.10
2014,04,19,14,04,13.30
2014,04,19,14,05,13.30
2014,04,19,14,06,10.50
2014,04,19,14,07,9.20
2014,04,19,14,08,13.50
2014,04,19,14,09,10.40
2014,04,19,14,10,9.30
2014,04,19,14,11,9.90
2014,04,19,14,12,9.40
2014,04,19,14,13,9.30
2014,04,19,14,14,8.00
2014,04,19,14,15,9.70
2014,04,19,14,16,2.10
2014,04,19,14,17,4.80
2014,04,19,14,18,7.80
2014,04,19,14,19,6.20
2014,04,19,14,20,6.80
2014,04,19,14,21,8.60
2014,04,19,14,22,11.10
2014,04,19,14,23,9.30
2014,04,19,14,24,15.50
2014,04,19,14,25,6.90
2014,04,19,14,26,3.50
2014,04,19,14,27,9.90
2014,04,19,14,28,2.80
2014,04,19,14,29,4.60
2014,04,19,14,30,2.10
2014,04,19,14,31,4.70
2014,04,19,14,32,3.10
2014,04,19,14,33,6.00
2014,04,19,14,34,5.90
2014,04,19,14,35,7.30
2014,04,19,14,36,10.10
2014,04,19,14,37,12.40
2014,04,19,14,38,9.20
2014,04,19,14,39,6.70
2014,04,19,14,40,7.30
2014,04,19,14,41,7.80
2014,04,19,14,42,8.60
2014,04,19,14,43,4.20
2014,04,19,14,44,4.10
2014,04,19,14,45,8.40
2014,04,19,14,46,8.40
2014,04,19,14,47,4.10
2014,04,19,14,48,6.50
2014,04,19,14,49,4.40
2014,04,19,14,50,8.70
2014,04,19,14,51,7.50
2014,04,19,14,52,6.10
2014,04,19,14,53,4.30
2014,04,19,14,54,5.70
2014,04,19,14,55,6.40
2014,04,19,14,56,5.40
2014,04,19,14,57,4.70
2014,04,19,14,58,6.40
2014,04,19,14,59,7.90
2014,04,19,15,00,3.60
2014,04,19,15,01,6.40
2014,04,19,15,02,7.10
2014,04,19,15,03,5.00
2014,04,19,15,04,7.80
2014,04,19,15,05,9.80
2014,04,19,15,06,8.80
2014,04,19,15,07,9.60
2014,04,19,15,08,9.90
2014,04,19,15,09,10.20
2014,04,19,15,10,9.60
2014,04,19,15,11,9.70
2014,04,19,15,12,10.20
2014,04,19,15,13,8.60
2014,04,19,15,14,8.90
2014,04,19,15,15,6.60
2014,04,19,15,16,10.00
2014,04,19,15,17,7.60
2014,04,19,15,18,7.90
2014,04,19,15,19,3.40
2014,04,19,15,20,6.40
2014,04,19,15,21,6.40
2014,04,19,15,22,5.10
2014,04,19,15,23,6.20
2014,04,19,15,24,1.20
2014,04,19,15,25,1.10
2014,04,19,15,26,0.40
2014,04,19,15,27,0.50
2014,04,19,15,28,1.50
2014,04,19,15,29,0.90
2014,04,19,15,30,0.40
2014,04,19,15,31,3.80
2014,04,19,15,32,3.90
2014,04,19,15,33,1.80
2014,04,19,15,34,1.60
2014,04,19,15,35,2.90
2014,04,19,15,36,3.20
2014,04,19,15,37,6.00
2014,04,19,15,38,4.30
2014,04,19,15,39,4.30
2014,04,19,15,40,3.40
2014,04,19,15,41,3.90
2014,04,19,15,42,4.20
2014,04,19,15,43,4.20
2014,04,19,15,44,3.50
2014,04,19,15,45,2.60
2014,04,19,15,46,2.50
2014,04,19,15,47,1.50
2014,04,19,15,48,3.20
2014,04,19,15,49,3.80
2014,04,19,15,50,1.10
2014,04,19,15,51,0.00
2014,04,19,15,52,1.40
2014,04,19,15,53,3.40
2014,04,19,15,54,4.70
2014,04,19,15,55,3.60
2014,04,19,15,56,1.10
2014,04,19,15,57,3.20
2014,04,19,15,58,2.60
2014,04,19,15,59,2.40
2014,04,19,16,00,1.20
2014,04,19,16,01,2.60
2014,04,19,16,02,0.20
2014,04,19,16,03,0.20
2014,04,19,16,04,3.10
2014,04,19,16,05,5.40
2014,04,19,16,06,6.20
2014,04,19,16,07,4.40
2014,04,19,16,08,5.20
2014,04,19,16,09,3.00
2014,04,19,16,10,3.60
2014,04,19,16,11,5.40
2014,04,19,16,12,4.30
2014,04,19,16,13,3.90
2014,04,19,16,14,2.50
2014,04,19,16,15,2.20
2014,04,19,16,16,4.10
2014,04,19,16,17,11.60
2014,04,19,16,18,14.30
2014,04,19,16,19,21.00
2014,04,19,16,20,23.70
2014,04,19,16,21,19.10
2014,04,19,16,22,21.00
2014,04,19,16,23,23.00
2014,04,19,16,24,13.80
2014,04,19,16,25,6.10
2014,04,19,16,26,11.70
2014,04,19,16,27,13.50
2014,04,19,16,28,15.70
2014,04,19,16,29,7.30
2014,04,19,16,30,8.60
2014,04,19,16,31,11.00
2014,04,19,16,32,8.70
2014,04,19,16,33,14.20
2014,04,19,16,34,13.00
2014,04,19,16,35,13.90
2014,04,19,16,36,14.00
2014,04,19,16,37,14.00
2014,04,19,16,38,15.30
2014,04,19,16,39,13.80
2014,04,19,16,40,13.80
2014,04,19,16,41,15.80
2014,04,19,16,42,6.20
2014,04,19,16,43,16.10
2014,04,19,16,44,21.60
2014,04,19,16,45,15.90
2014,04,19,16,46,17.20
2014,04,19,16,47,17.90
2014,04,19,16,48,17.90
2014,04,19,16,49,21.40
2014,04,19,16,50,19.80
2014,04,19,16,51,18.90
2014,04,19,16,52,20.20
2014,04,19,16,53,21.10
2014,04,19,16,54,18.90
2014,04,19,16,55,18.50
2014,04,19,16,56,17.60
2014,04,19,16,57,17.90
2014,04,19,16,58,18.90
2014,04,19,16,59,16.30
2014,04,19,17,00,18.50
2014,04,19,17,01,19.40
2014,04,19,17,02,15.00
2014,04,19,17,03,14.90
2014,04,19,17,04,18.50
2014,04,19,17,05,23.60
2014,04,19,17,06,22.90
2014,04,19,17,07,21.30
2014,04,19,17,08,20.10
2014,04,19,17,09,23.30
2014,04,19,17,10,19.80
2014,04,19,17,11,21.00
2014,04,19,17,12,22.70
2014,04,19,17,13,20.30
2014,04,19,17,14,21.30
2014,04,19,17,15,16.80
2014,04,19,17,16,23.50
2014,04,19,17,17,22.20
2014,04,19,17,18,17.60
2014,04,19,17,19,22.60
2014,04,19,17,20,20.30
2014,04,19,17,21,22.50
2014,04,19,17,22,19.80
2014,04,19,17,23,24.00
2014,04,19,17,24,16.80
2014,04,19,17,25,19.40
2014,04,19,17,26,22.60
2014,04,19,17,27,25.20
2014,04,19,17,28,22.40
2014,04,19,17,29,17.20
2014,04,19,17,30,12.50
2014,04,19,17,31,15.60
2014,04,19,17,32,13.20
2014,04,19,17,33,19.60
2014,04,19,17,34,12.70
2014,04,19,17,35,14.90
2014,04,19,17,36,18.50
2014,04,19,17,37,15.00
2014,04,19,17,38,18.70
2014,04,19,17,39,18.80
2014,04,19,17,40,15.20
2014,04,19,17,41,17.30
2014,04,19,17,42,14.00